Regional Weather Roundup
Issued by NWS Mobile, AL

Home | Current Version | Previous Version | Text Only | Print | Product List | Glossary On
Versions: 1 2 3 4 5 6 7 8 9 10 11 12 13 14 15 16 17 18 19 20 21 22 23 24 25 26 27 28 29 30 31 32 33 34 35 36 37 38 39 40 41 42 43 44 45 46 47 48 49 50
000
ASUS44 KMOB 210210
RWRMOB
REGIONAL WEATHER ROUNDUP
NATIONAL WEATHER SERVICE MOBILE AL
800 PM CST SAT DEC 20 2014

NOTE: "FAIR" INDICATES FEW OR NO CLOUDS BELOW 12,000 FEET WITH NO
      SIGNIFICANT WEATHER AND/OR OBSTRUCTIONS TO VISIBILITY.

  * THESE STATIONS ARE PART OF THE UNIVERSITY OF SOUTH ALABAMA
    MESONET AND ARE NOT UNDER NWS OR FAA QUALITY CONTROL.

ALZ061>064-210300-
COASTAL ALABAMA

CITY           SKY/WX    TMP DP  RH WIND       PRES   REMARKS
MOBILE REG APT CLOUDY    49  47  93 NE10      30.15S
BROOKLEY FIELD CLOUDY    52  48  86 N9        30.16S
USA CAMPUS*      N/A     50  48  93 NE7       30.15F
DOG RIVER*     NOT AVBL


CITY           SKY/WX    TMP DP  RH WIND       PRES   REMARKS
MOUNT VERNON*    N/A     48  46  93 NE2       30.18R
SARALAND*      NOT AVBL
BAY MINETTE*   NOT AVBL
LOXLEY*          N/A     50  48  93 N7        30.15S
ROBERTSDALE*     N/A     50  48  93 CALM      30.15R
FAIRHOPE*        N/A     50  48  93 NE10      30.14S
ELBERTA*         N/A     50  48  93 N5        30.13S
FOLEY*           N/A     52  50  93 CALM      30.11S
GRAND BAY*       N/A     50  48  93 NE7       30.13S
DAUPHIN ISLND* NOT AVBL
BON SCOUR NWR* NOT AVBL
GULF SHORES    CLOUDY    51  48  92 N7        30.13S

$$

ALZ051>060-210300-
INTERIOR SOUTHWEST AND SOUTH CENTRAL ALABAMA

CITY           SKY/WX    TMP DP  RH WIND       PRES   REMARKS
GREENVILLE     CLOUDY    51  47  86 NE6       30.16R
EVERGREEN      CLOUDY    51  48  89 CALM      30.16S
CASTLEBERRY*   NOT AVBL
ATMORE*          N/A     48  48 100 N7        30.17R
DIXIE*           N/A     50  48  93 N2        30.13R
ANDALUSIA/OPP  CLOUDY    55  48  76 E5        30.15R
ANDALUSIA*       N/A     50  48  93 NE5       30.15R
FLORALA APT    CLOUDY    52  48  87 NE7       30.16S
FLORALA*         N/A     52  50  93 CALM      30.11S

$$

FLZ001>006-210300-
WESTERN FLORIDA PANHANDLE

CITY           SKY/WX    TMP DP  RH WIND       PRES   REMARKS
PENSACOLA      CLOUDY    49  48  97 N9        30.13S
NAS PENSACOLA  NOT AVBL
MILTON         NOT AVBL
WHTNG S FIELD  CLOUDY    53  48  83 N9        30.14S


CITY           SKY/WX    TMP DP  RH WIND       PRES   REMARKS
WALNUT HILL*   NOT AVBL
JAY*             N/A     50  46  87 N6        30.16R
DUKE FIELD     CLOUDY    52  50  92 N7        30.13S
CRESTVIEW      CLOUDY    52  49  89 NE6       30.15R
VALPARAISO     NOT AVBL
DESTIN         CLOUDY    54  52  93 N9        30.12R

$$

MSZ076-079-210300-
INTERIOR SOUTHEAST MISSISSIPPI

CITY           SKY/WX    TMP DP  RH WIND       PRES   REMARKS
LEAKESVILLE*   NOT AVBL
AGRICOLA*      NOT AVBL

$$

MARINE OBSERVATIONS

STATION/POSITION TIME  TEMP    WIND        PRES    WAVE
                       AIR SEA DIR/SP/G            HT/PER
                 (UTC) (F)     (DEG/KT/KT) (MB)    (FT/S)
PASCAGOULA       0200   51      20/ 13/ 16 1020.0F
PETIT BOIS ISLND 0200   52      20/ 18/ 21 1020.2F
GRAND BAY        0100   51      30/  9     1021.0S
KATRINA CUT      0100   52      40/ 19     1020.6S
CEDAR POINT      0100   51      30/ 15     1020.0S
E DAUPHIN ISLAND 0100   52      20/ 18/ 20 1020.3R
MIDDLE BAY LIGHT 0100   51      30/ 18     1020.0S
USCG MOBILE BAY  0200   51 59   30/ 10/ 13 1020.2R
STATE DOCKS      0200   51 61              1020.9R
MEAHER PARK      0100   51     360/  6     1021.3R
WEEKS BAY        0100   51                   N/A
FORT MORGAN      0200   52      50/ 19/ 21 1019.8R
12 S ORANGE BCH  0200   57 69   30/ 17/ 23 1018.7S   3/ 6
PENSACOLA BAY    0200   53 60   20/  4/  7 1020.5S
64 S DAUPHIN ISL 0200   62 74   40/ 19/ 23 1018.2R   6/ 7
67 S FORT MORGAN 0000   64      40/ 17       N/A

$$

SELECTED LOCATIONS ACROSS THE REGION

CITY           SKY/WX    TMP DP  RH WIND       PRES   REMARKS
NEW ORLEANS    CLOUDY    52  47  83 NE12      30.15R
GULFPORT       CLOUDY    51  47  86 N12       30.13F
PASCAGOULA AP  CLOUDY    51  48  89 N9        30.14F
PASCAGOULA*      N/A     50  48  93 NW7       30.13F
HATTIESBURG    CLOUDY    52  45  77 N7        30.17S
LAUREL         CLOUDY    50  43  76 NE6       30.18S
MERIDIAN       PTCLDY    40  39  97 CALM      30.19S
JACKSON        PTCLDY    41  39  93 E3        30.18F
MONTGOMERY     CLOUDY    52  46  80 N5        30.19R
TROY           CLOUDY    52  49  89 NE6       30.17S
KINSTON*       NOT AVBL
GENEVA*          N/A     52  48  87 NE8       30.17R
ASHFORD*         N/A     50  48  93 NE5       30.15R
DOTHAN         CLOUDY    52  49  89 NE9       30.17R
PANAMA CITY    CLOUDY    54  51  90 N10       30.11R

$$



USA.gov is the U.S. government's official web portal to all federal, state and local government web resources and services.